This is the latest recevied weather packets stored in our database for station/object K1AWR. If no packets are shown the sender has not sent any weather packets the latest 10 day(s).
| Time | Temp. | Humidity | Pressure | Rain* | Wind** | Luminosity | Snow |
|---|---|---|---|---|---|---|---|
| 1778177396 | 16.67° C | 33% | 1009 hPa | 0 mm | - | 752 W/m² | - |
| 1778177093 | 16.67° C | 37% | 1008.9 hPa | 0 mm | - | 760 W/m² | - |
| 1778176789 | 17.22° C | 32% | 1008.9 hPa | 0 mm | - | 761 W/m² | - |
| 1778176486 | 17.22° C | 32% | 1009.1 hPa | 0 mm | - | 771 W/m² | - |
| 1778176184 | 16.67° C | 32% | 1009 hPa | 0 mm | - | 773 W/m² | - |
| 1778175881 | 16.11° C | 34% | 1009.1 hPa | 0 mm | - | 780 W/m² | - |
| 1778175578 | 16.11° C | 32% | 1009.1 hPa | 0 mm | - | 782 W/m² | - |
| 1778175275 | 16.11° C | 34% | 1009.1 hPa | 0 mm | - | 786 W/m² | - |
| 1778174972 | 16.11° C | 40% | 1009.2 hPa | 0 mm | - | 791 W/m² | - |
| 1778174668 | 16.67° C | 32% | 1009.2 hPa | 0 mm | - | 805 W/m² | - |
| 1778174365 | 16.11° C | 34% | 1009.3 hPa | 0 mm | - | 796 W/m² | - |
| 1778174061 | 15.56° C | 34% | 1009.3 hPa | 0 mm | - | 797 W/m² | - |
| 1778173758 | 16.11° C | 37% | 1009.3 hPa | 0 mm | - | 801 W/m² | - |
| 1778173455 | 16.11° C | 40% | 1009.4 hPa | 0 mm | - | 797 W/m² | - |
| 1778173151 | 15.56° C | 33% | 1009.2 hPa | 0 mm | - | 798 W/m² | - |
| 1778172847 | 16.11° C | 32% | 1009.5 hPa | 0 mm | - | 801 W/m² | - |
| 1778172543 | 15.56° C | 38% | 1009.5 hPa | 0 mm | - | 797 W/m² | - |
| 1778172240 | 15° C | 37% | 1009.5 hPa | 0 mm | - | 797 W/m² | - |
| 1778171937 | 15.56° C | 35% | 1009.5 hPa | 0 mm | - | 796 W/m² | - |
| 1778171634 | 15.56° C | 34% | 1009.6 hPa | 0 mm | - | 794 W/m² | - |
| 1778171331 | 15.56° C | 38% | 1009.7 hPa | 0 mm | - | 794 W/m² | - |
| 1778171027 | 15° C | 36% | 1009.9 hPa | 0 mm | - | 791 W/m² | - |
| 1778170724 | 15° C | 35% | 1009.9 hPa | 0 mm | - | 790 W/m² | - |
| 1778170420 | 14.44° C | 37% | 1009.9 hPa | 0 mm | - | 775 W/m² | - |
| 1778170117 | 15° C | 39% | 1010.1 hPa | 0 mm | - | 786 W/m² | - |
* Rain latest hour (hover to see other rain measurements)
** Current wind speed in m/s (hover to see current wind gust speed)